When you browse on this site, cookies collect data to enhance your experience and personalize the content and advertising you see.
Visit our Privacy Policy to learn more. By continuing to use the site, you agree to this use of cookies and data.
  • En España
  • Lista de países
  • Para 7 días
  • Temperatura del agua
  • Mapa Satelital
  • El tiempo en el mapa
  • Informadores
  • user-avatar
    Iniciar sesión

    Tiempo cada hora Norfolk

    Hoy, 18 Junio, Martes

    Tiempo Temperatura Precipitaciones Viento Presión Humedad
    00:00 +27°C° 0.1 mm 5 mps 761 mmHg 77%
    01:00 +27°C° 0.1 mm 4 mps 761 mmHg 80%
    02:00 +26°C° 0.3 mm 4 mps 761 mmHg 82%
    03:00 +26°C° 0.3 mm 4 mps 761 mmHg 85%
    04:00 +25°C° 0.3 mm 4 mps 761 mmHg 88%
    05:00 +25°C° 0 mm 4 mps 761 mmHg 86%
    06:00 +26°C° 0 mm 4 mps 761 mmHg 84%
    07:00 +26°C° 0 mm 4 mps 761 mmHg 82%
    08:00 +28°C° 0 mm 4 mps 761 mmHg 76%
    09:00 +30°C° 0 mm 5 mps 761 mmHg 69%
    10:00 +32°C° 0 mm 5 mps 761 mmHg 63%
    11:00 +33°C° 0.2 mm 5 mps 760 mmHg 58%
    12:00 +34°C° 0.2 mm 5 mps 760 mmHg 53%
    13:00 +35°C° 0.2 mm 4 mps 760 mmHg 48%
    14:00 +35°C° 0.1 mm 5 mps 759 mmHg 50%
    15:00 +35°C° 0.1 mm 5 mps 759 mmHg 51%
    16:00 +35°C° 0.1 mm 5 mps 759 mmHg 53%
    17:00 +33°C° 1 mm 4 mps 759 mmHg 60%
    18:00 +32°C° 1 mm 4 mps 759 mmHg 67%
    19:00 +29°C° 1 mm 4 mps 759 mmHg 74%
    20:00 +28°C° 1.8 mm 4 mps 759 mmHg 78%
    21:00 +27°C° 1.8 mm 3 mps 759 mmHg 82%
    22:00 +26°C° 1.8 mm 3 mps 760 mmHg 86%
    23:00 +26°C° 0.9 mm 3 mps 759 mmHg 86%

    Mañana, 19 Junio, Miércoles

    Tiempo Temperatura Precipitaciones Viento Presión Humedad
    00:00 +25°C° 0.9 mm 2 mps 759 mmHg 86%
    01:00 +25°C° 0.9 mm 2 mps 758 mmHg 87%
    02:00 +25°C° 0 mm 2 mps 758 mmHg 88%
    03:00 +25°C° 0 mm 2 mps 758 mmHg 89%
    04:00 +25°C° 0 mm 2 mps 757 mmHg 90%
    05:00 +25°C° 0 mm 2 mps 757 mmHg 89%
    06:00 +26°C° 0 mm 2 mps 757 mmHg 88%
    07:00 +26°C° 0 mm 2 mps 757 mmHg 87%
    08:00 +28°C° 0.3 mm 2 mps 757 mmHg 81%
    09:00 +29°C° 0.3 mm 2 mps 757 mmHg 74%
    10:00 +30°C° 0.3 mm 1 mps 757 mmHg 68%
    11:00 +30°C° 0 mm 1 mps 756 mmHg 69%
    12:00 +29°C° 0 mm 1 mps 756 mmHg 71%
    13:00 +29°C° 0 mm 1 mps 756 mmHg 72%
    14:00 +30°C° 0 mm 2 mps 755 mmHg 68%
    15:00 +30°C° 0 mm 2 mps 755 mmHg 64%
    16:00 +31°C° 0 mm 2 mps 754 mmHg 60%
    17:00 +30°C° 0 mm 2 mps 754 mmHg 65%
    18:00 +30°C° 0 mm 3 mps 754 mmHg 69%
    19:00 +29°C° 0 mm 3 mps 754 mmHg 74%
    20:00 +28°C° 0.9 mm 3 mps 754 mmHg 77%
    21:00 +27°C° 0.9 mm 3 mps 754 mmHg 80%
    22:00 +27°C° 0.9 mm 4 mps 754 mmHg 83%
    23:00 +26°C° 0.1 mm 4 mps 754 mmHg 85%

    Pasado mañana, 20 Junio, Jueves

    Tiempo Temperatura Precipitaciones Viento Presión Humedad
    00:00 +26°C° 0.1 mm 4 mps 754 mmHg 86%
    01:00 +26°C° 0.1 mm 4 mps 753 mmHg 88%
    02:00 +26°C° 0 mm 5 mps 753 mmHg 89%
    03:00 +25°C° 0 mm 5 mps 753 mmHg 90%
    04:00 +25°C° 0 mm 5 mps 753 mmHg 92%
    05:00 +26°C° 0 mm 5 mps 753 mmHg 89%
    06:00 +26°C° 0 mm 5 mps 753 mmHg 87%
    07:00 +27°C° 0 mm 5 mps 754 mmHg 84%
    08:00 +29°C° 0 mm 5 mps 754 mmHg 75%
    09:00 +32°C° 0 mm 5 mps 754 mmHg 65%
    10:00 +33°C° 0 mm 5 mps 754 mmHg 56%
    11:00 +34°C° 0 mm 5 mps 753 mmHg 52%
    12:00 +35°C° 0 mm 5 mps 753 mmHg 49%
    13:00 +36°C° 0 mm 5 mps 753 mmHg 45%
    14:00 +36°C° 0 mm 6 mps 752 mmHg 46%
    15:00 +36°C° 0 mm 6 mps 752 mmHg 47%
    16:00 +36°C° 0 mm 7 mps 751 mmHg 48%
    17:00 +35°C° 0 mm 7 mps 752 mmHg 53%
    18:00 +34°C° 0 mm 7 mps 752 mmHg 58%
    19:00 +33°C° 0 mm 7 mps 752 mmHg 63%
    20:00 +30°C° 2.3 mm 6 mps 752 mmHg 67%
    21:00 +27°C° 2.3 mm 5 mps 752 mmHg 70%
    22:00 +25°C° 2.3 mm 4 mps 752 mmHg 73%
    23:00 +25°C° 0.6 mm 5 mps 752 mmHg 76%

    21 Junio, Viernes

    Tiempo Temperatura Precipitaciones Viento Presión Humedad
    00:00 +26°C° 0.6 mm 5 mps 752 mmHg 79%
    01:00 +26°C° 0.6 mm 6 mps 751 mmHg 82%
    02:00 +26°C° 0 mm 6 mps 751 mmHg 82%
    03:00 +26°C° 0 mm 6 mps 750 mmHg 82%
    04:00 +24°C° 0 mm 6 mps 750 mmHg 82%
    05:00 +24°C° 0 mm 7 mps 750 mmHg 78%
    06:00 +24°C° 0 mm 7 mps 750 mmHg 75%
    07:00 +24°C° 0 mm 8 mps 750 mmHg 71%
    08:00 +26°C° 0.1 mm 8 mps 751 mmHg 69%
    09:00 +27°C° 0.1 mm 8 mps 751 mmHg 67%
    10:00 +28°C° 0.1 mm 8 mps 752 mmHg 65%
    11:00 +27°C° 0.1 mm 9 mps 753 mmHg 65%
    12:00 +27°C° 0.1 mm 9 mps 753 mmHg 65%
    13:00 +26°C° 0.1 mm 9 mps 754 mmHg 65%
    14:00 +27°C° 0 mm 8 mps 755 mmHg 63%
    15:00 +27°C° 0 mm 8 mps 755 mmHg 62%
    16:00 +27°C° 0 mm 7 mps 756 mmHg 60%
    17:00 +26°C° 0 mm 6 mps 757 mmHg 60%
    18:00 +26°C° 0 mm 5 mps 758 mmHg 61%
    19:00 +26°C° 0 mm 4 mps 758 mmHg 61%
    20:00 +25°C° 0 mm 3 mps 759 mmHg 62%
    21:00 +24°C° 0 mm 2 mps 760 mmHg 63%
    22:00 +23°C° 0 mm 1 mps 760 mmHg 63%
    23:00 +23°C° 0 mm 2 mps 760 mmHg 64%

    22 Junio, Sábado

    Tiempo Temperatura Precipitaciones Viento Presión Humedad
    00:00 +21°C° 0 mm 2 mps 760 mmHg 65%
    01:00 +21°C° 0 mm 3 mps 760 mmHg 66%
    02:00 +21°C° 0 mm 3 mps 761 mmHg 65%
    03:00 +21°C° 0 mm 4 mps 761 mmHg 64%
    04:00 +20°C° 0 mm 4 mps 761 mmHg 62%
    05:00 +21°C° 0 mm 4 mps 762 mmHg 59%
    06:00 +21°C° 0 mm 4 mps 762 mmHg 56%
    07:00 +21°C° 0 mm 5 mps 763 mmHg 53%
    08:00 +22°C° 0 mm 5 mps 763 mmHg 50%
    09:00 +23°C° 0 mm 5 mps 763 mmHg 46%
    10:00 +25°C° 0 mm 4 mps 764 mmHg 43%
    11:00 +26°C° 0 mm 4 mps 764 mmHg 41%
    12:00 +27°C° 0 mm 4 mps 764 mmHg 38%
    13:00 +28°C° 0 mm 3 mps 763 mmHg 35%
    14:00 +28°C° 0 mm 3 mps 763 mmHg 35%
    15:00 +29°C° 0 mm 3 mps 763 mmHg 35%
    16:00 +29°C° 0 mm 2 mps 763 mmHg 35%
    17:00 +28°C° 0 mm 2 mps 763 mmHg 40%
    18:00 +26°C° 0 mm 1 mps 763 mmHg 44%
    19:00 +25°C° 0 mm 1 mps 763 mmHg 49%
    20:00 +24°C° 0 mm 1 mps 763 mmHg 51%
    21:00 +23°C° 0 mm 2 mps 763 mmHg 53%
    22:00 +21°C° 0 mm 2 mps 763 mmHg 56%
    23:00 +20°C° 0 mm 2 mps 763 mmHg 56%

    23 Junio, Domingo

    Tiempo Temperatura Precipitaciones Viento Presión Humedad
    00:00 +20°C° 0 mm 2 mps 763 mmHg 57%
    01:00 +19°C° 0 mm 2 mps 763 mmHg 57%
    02:00 +19°C° 0 mm 2 mps 763 mmHg 60%
    03:00 +19°C° 0 mm 2 mps 763 mmHg 63%
    04:00 +18°C° 0 mm 2 mps 763 mmHg 66%
    05:00 +19°C° 0 mm 2 mps 764 mmHg 64%
    06:00 +20°C° 0 mm 2 mps 764 mmHg 63%
    07:00 +21°C° 0 mm 2 mps 765 mmHg 61%
    08:00 +24°C° 0 mm 2 mps 765 mmHg 54%
    09:00 +27°C° 0 mm 1 mps 764 mmHg 47%
    10:00 +29°C° 0 mm 1 mps 764 mmHg 40%
    11:00 +30°C° 0 mm 1 mps 764 mmHg 37%
    12:00 +31°C° 0 mm 1 mps 764 mmHg 35%
    13:00 +32°C° 0 mm 1 mps 764 mmHg 32%
    14:00 +32°C° 0 mm 2 mps 763 mmHg 35%
    15:00 +31°C° 0 mm 2 mps 763 mmHg 38%
    16:00 +31°C° 0 mm 3 mps 763 mmHg 40%
    17:00 +29°C° 0 mm 3 mps 763 mmHg 47%
    18:00 +28°C° 0 mm 4 mps 763 mmHg 54%
    19:00 +26°C° 0 mm 4 mps 763 mmHg 61%
    20:00 +26°C° 0 mm 5 mps 763 mmHg 61%
    21:00 +25°C° 0 mm 5 mps 763 mmHg 62%
    22:00 +23°C° 0 mm 5 mps 763 mmHg 62%
    23:00 +23°C° 0.2 mm 5 mps 763 mmHg 67%
    Mostrar más